Sidney, NE

8:21 PM MDT on May 27, 2017 (GMT -0600)
Sidney Municipal

Weather History for KSNY - October, 2012

Change the Weather History Date:

Wednesday, October 3, 2012

  Actual Average Record
Temperature  
Mean Temperature 62 °F 55 °F  
Max Temperature 88 °F 70 °F 90 °F (1967)
Min Temperature 35 °F 40 °F 25 °F (2009)
Degree Days  
Heating Degree Days 3 10  
Month to date heating degree days 20 30  
Since 1 July heating degree days 136 170  
Cooling Degree Days 0 0  
Month to date cooling degree days 0 1  
Year to date cooling degree days 1165 827  
Growing Degree Days 12 (Base 50)    
Moisture  
Dew Point 28 °F    
Average Humidity 37    
Maximum Humidity 64    
Minimum Humidity 9    
Precipitation  
Precipitation 0.00 in 0.04 in 0.81 in (1969)
Month to date precipitation 0.01 0.12  
Year to date precipitation 6.38 16.53  
Sea Level Pressure  
Sea Level Pressure 29.87 in    
Wind  
Wind Speed 22 mph (NW)    
Max Wind Speed 39 mph    
Max Gust Speed 47 mph    
Visibility 10 miles    
Events      
T = Trace of Precipitation, MM = Missing Value Source: NWS Daily Summary

Daily Weather History Graph

Daily Weather History Graph

Search for Another Location

Airport or City:

Trip Planner

Search our weather history database for the weather conditions in past years. The results will help you decide how hot, cold, wet, or windy it might be!

Date:

Astronomy

Oct. 03, 2012 Rise Set
Actual Time 6:51 AM MDT 6:29 PM MDT
Civil Twilight 6:23 AM MDT 6:57 PM MDT
Nautical Twilight 5:51 AM MDT 7:28 PM MDT
Astronomical Twilight 5:19 AM MDT 8:01 PM MDT
Moon 8:21 PM MDT (10/3) 10:18 AM MDT (10/3)
Length of Visible Light 12h 33m
Length of Day
11h 38m
Waning Gibbous, 88% of the Moon is Illuminated
Oct 3
Waning Gibbous
Oct 8
Last Quarter
Oct 15
New
Oct 21
First Quarter
Oct 29
Full

Hourly Weather History & Observations

Time (MDT) Temp. Windchill Dew Point Humidity Pressure Visibility Wind Dir Wind Speed Gust Speed Precip Events Conditions
12:53 AM 45.0 °F 39.7 °F 28.9 °F 53% 29.72 in 10.0 mi WSW 10.4 mph - N/A   Clear
1:53 AM 46.0 °F 41.4 °F 30.0 °F 54% 29.71 in 10.0 mi WSW 9.2 mph - N/A   Clear
2:53 AM 51.1 °F - 28.9 °F 43% 29.70 in 10.0 mi WNW 11.5 mph - N/A   Clear
3:53 AM 55.9 °F - 28.0 °F 34% 29.69 in 10.0 mi West 11.5 mph - N/A   Clear
4:53 AM 57.0 °F - 28.0 °F 33% 29.69 in 10.0 mi WSW 10.4 mph - N/A   Clear
5:53 AM 55.0 °F - 28.0 °F 35% 29.71 in 10.0 mi West 11.5 mph - N/A   Clear
6:53 AM 57.0 °F - 27.0 °F 32% 29.74 in 10.0 mi West 12.7 mph - N/A   Clear
7:53 AM 63.0 °F - 28.0 °F 27% 29.73 in 10.0 mi NW 9.2 mph - N/A   Clear
9:53 AM 82.0 °F - 26.1 °F 13% 29.69 in 10.0 mi West 24.2 mph 31.1 mph N/A   Clear
10:53 AM 84.0 °F - 25.0 °F 12% 29.68 in 10.0 mi West 28.8 mph 39.1 mph N/A   Clear
11:53 AM 84.9 °F - 21.0 °F 10% 29.69 in 10.0 mi WNW 27.6 mph 43.7 mph N/A   Clear
12:53 PM 86.0 °F - 21.9 °F 10% 29.68 in 10.0 mi West 26.5 mph 36.8 mph N/A   Clear
2:00 PM 84.2 °F - 21.2 °F 10% 29.81 in 10.0 mi NNW 23.0 mph 33.4 mph N/A   Clear
2:53 PM 79.0 °F - 21.9 °F 12% 29.71 in 9.0 mi NNW 31.1 mph 40.3 mph N/A   Clear
3:53 PM 69.1 °F - 34.0 °F 27% 29.81 in 7.0 mi North 34.5 mph 44.9 mph N/A   Clear
4:53 PM 57.9 °F - 35.1 °F 42% 29.92 in 10.0 mi North 31.1 mph 40.3 mph N/A   Clear
5:53 PM 55.0 °F - 35.1 °F 47% 29.98 in 10.0 mi North 34.5 mph 42.6 mph N/A   Clear
6:53 PM 48.9 °F - 33.1 °F 54% 30.04 in 10.0 mi North 35.7 mph 46.0 mph N/A   Clear
7:53 PM 46.0 °F 35.9 °F 30.9 °F 56% 30.09 in 10.0 mi North 35.7 mph 46.0 mph N/A   Mostly Cloudy
8:01 PM 46.4 °F 36.0 °F 30.2 °F 53% 30.16 in 10.0 mi NNW 39.1 mph 47.2 mph N/A   Mostly Cloudy
8:25 PM 44.6 °F 33.8 °F 30.2 °F 57% 30.18 in 10.0 mi North 36.8 mph 44.9 mph N/A   Overcast
8:53 PM 43.0 °F 32.4 °F 28.9 °F 58% 30.14 in 10.0 mi North 31.1 mph 42.6 mph N/A   Mostly Cloudy
9:53 PM 41.0 °F 31.1 °F 28.0 °F 60% 30.18 in 10.0 mi NNW 23.0 mph 29.9 mph N/A   Clear
10:53 PM 37.9 °F 26.3 °F 26.1 °F 62% 30.20 in 10.0 mi NNW 26.5 mph 35.7 mph N/A   Clear
11:53 PM 37.0 °F 27.0 °F 27.0 °F 67% 30.22 in 10.0 mi NNW 18.4 mph - N/A   Clear